Location: Unspecified
(0.0000°N, 0.0000°E)
Time: 15:24:12
(UTC+00:00)

Cosmos 80 Rocket - Pass Details

Date: 30 September 2021
Orbit: 1360 x 1510 km, 56.1° (Epoch: 25 October)

Event Time Altitude Azimuth Distance (km) Brightness Sun altitude
Rises 21:22:10 0° 295° (WNW) 4,559 8.5 -53.0°
Reaches altitude 10° 21:26:24 10° 278° (W) 3,554 7.8 -54.0°
Enters shadow 21:31:20 18° 243° (WSW) 2,949 7.2 -55.3°
